Regional Weather Roundup
Issued by NWS Mobile, AL

Home | Current Version | Previous Version | Text Only | Print | Product List | Glossary On
Versions: 1 2 3 4 5 6 7 8 9 10 11 12 13 14 15 16 17 18 19 20 21 22 23 24 25 26 27 28 29 30 31 32 33 34 35 36 37 38 39 40 41 42 43 44 45 46 47 48 49 50
000
ASUS44 KMOB 310010
RWRMOB
REGIONAL WEATHER ROUNDUP
NATIONAL WEATHER SERVICE MOBILE AL
700 PM CDT SAT AUG 30 2014

NOTE: "FAIR" INDICATES FEW OR NO CLOUDS BELOW 12,000 FEET WITH NO
      SIGNIFICANT WEATHER AND/OR OBSTRUCTIONS TO VISIBILITY.

  * THESE STATIONS ARE PART OF THE UNIVERSITY OF SOUTH ALABAMA
    MESONET AND ARE NOT UNDER NWS OR FAA QUALITY CONTROL.

ALZ061>064-310100-
COASTAL ALABAMA

CITY           SKY/WX    TMP DP  RH WIND       PRES   REMARKS
MOBILE REG APT CLOUDY    79  73  82 W5        30.08R
6HR MIN TEMP:  79; 6HR MAX TEMP:  89; 6HR PCP:  0.01;

BROOKLEY FIELD RAIN      76  72  87 SW5       30.07S
6HR MIN TEMP:  75; 6HR MAX TEMP:  91;

USA CAMPUS*      N/A     81  75  83 CALM      30.05R
DOG RIVER*       N/A     75  73  94 CALM      30.05S


CITY           SKY/WX    TMP DP  RH WIND       PRES   REMARKS
MOUNT VERNON*    N/A     77  73  88 W5        30.07R
SARALAND*      NOT AVBL
BAY MINETTE*   NOT AVBL
LOXLEY*          N/A     81  75  83 CALM      30.06R
ROBERTSDALE*     N/A     79  75  89 S3        30.06R
FAIRHOPE*        N/A     82  77  83 S2        30.05R
ELBERTA*         N/A     84  73  70 CALM      30.05R
FOLEY*         NOT AVBL
GRAND BAY*       N/A     79  73  83 NW3       30.04R
DAUPHIN ISLND* NOT AVBL
BON SCOUR NWR* NOT AVBL
GULF SHORES    MOCLDY    84  77  79 S6        30.05S

$$

ALZ051>060-310100-
INTERIOR SOUTHWEST AND SOUTH CENTRAL ALABAMA

CITY           SKY/WX    TMP DP  RH WIND       PRES   REMARKS
GREENVILLE     CLOUDY    79  73  82 CALM      30.08R
6HR MIN TEMP:  77; 6HR MAX TEMP:  93; 6HR PCP:  0.11;

EVERGREEN      CLOUDY    86  73  65 S6        30.07R
6HR MIN TEMP:  84; 6HR MAX TEMP:  95; 6HR PCP:  0.02;

CASTLEBERRY*   NOT AVBL
ATMORE*          N/A     84  73  70 S6        30.07R
DIXIE*         NOT AVBL
ANDALUSIA/OPP  CLOUDY    88  73  61 CALM      30.07R HX  95
6HR MIN TEMP:  82; 6HR MAX TEMP:  99; 6HR PCP:  0.26;

ANDALUSIA*     NOT AVBL
FLORALA APT    MOCLDY    85  73  67 S5        30.09R
6HR MIN TEMP:  85; 6HR MAX TEMP:  96; 6HR PCP: TRACE;

FLORALA*         N/A     84  72  65 CALM      30.05R

$$

FLZ001>006-310100-
WESTERN FLORIDA PANHANDLE

CITY           SKY/WX    TMP DP  RH WIND       PRES   REMARKS
PENSACOLA      MOCLDY    83  75  77 S9        30.06R
6HR MIN TEMP:  83; 6HR MAX TEMP:  90;

NAS PENSACOLA  MOCLDY    85  77  77 S9        30.05S HX  95
6HR MIN TEMP:  85; 6HR MAX TEMP:  92;

MILTON         MOCLDY    84  74  71 S9        30.07R
6HR MIN TEMP:  84; 6HR MAX TEMP:  92;

WHTNG S FIELD    N/A    N/A N/A N/A MISG      30.07R


CITY           SKY/WX    TMP DP  RH WIND       PRES   REMARKS
WALNUT HILL*   NOT AVBL
JAY*           NOT AVBL
DUKE FIELD     MOCLDY    85  76  75 S7        30.08R HX  95
CRESTVIEW      MOCLDY    85  75  72 S6        30.08R
6HR MIN TEMP:  85; 6HR MAX TEMP:  96;

VALPARAISO     MOCLDY    85  76  74 S7        30.07R HX  95
6HR MIN TEMP:  85; 6HR MAX TEMP:  92;

DESTIN         MOCLDY    87  77  72 S6        30.07R HX  99
6HR MIN TEMP:  87; 6HR MAX TEMP:  92;


$$

MSZ076-079-310100-
INTERIOR SOUTHEAST MISSISSIPPI

CITY           SKY/WX    TMP DP  RH WIND       PRES   REMARKS
LEAKESVILLE*     N/A     73  72  94 CALM        N/A
AGRICOLA*      NOT AVBL

$$

MARINE OBSERVATIONS

STATION/POSITION TIME  TEMP    WIND        PRES    WAVE
                       AIR SEA DIR/SP/G            HT/PER
                 (UTC) (F)     (DEG/KT/KT) (MB)    (FT/S)
PASCAGOULA       0000   79     330/  2/  2 1017.3R
PETIT BOIS ISLND 0000   82     310/  5/  7 1017.7R
GRAND BAY        2300   85     180/ 10     1018.0S
KATRINA CUT      2300   85     180/ 10     1017.6S
CEDAR POINT      2300   84     180/ 10     1017.3R
E DAUPHIN ISLAND 2300   85     160/ 13/ 14 1017.2R
MIDDLE BAY LIGHT 2300   81     300/  8     1016.9R
USCG MOBILE BAY  0000   80 86  150/  3/  5 1016.5F
STATE DOCKS      0000   80 85              1017.6F
MEAHER PARK      2300   82     230/ 16     1017.3R
WEEKS BAY        2300   86                   N/A
FORT MORGAN      0000   85     180/ 11/ 12 1017.0S
12 S ORANGE BCH  0000   85 86  160/ 10/ 12 1017.6R   4/ 5
PENSACOLA BAY    0000   87 85  180/  4/  8 1018.1R
64 S DAUPHIN ISL 0000   85 85  150/ 12/ 14 1017.3R
67 S FORT MORGAN 2300   84                 1017.3R

$$

SELECTED LOCATIONS ACROSS THE REGION

CITY           SKY/WX    TMP DP  RH WIND       PRES   REMARKS
NEW ORLEANS    CLOUDY    80  74  81 CALM      30.04R
GULFPORT       CLOUDY    77  74  90 N3        30.04R
PASCAGOULA AP  CLOUDY    76  74  93 NE5       30.06R
PASCAGOULA*      N/A     79  73  83 N3        30.04R
HATTIESBURG    CLOUDY    76  73  91 S5        30.06R
LAUREL         CLOUDY    73  70  88 S3        30.06R
MERIDIAN       CLOUDY    74  71  91 S5        30.05F
JACKSON        CLOUDY    76  73  91 S10       30.02R
MONTGOMERY     CLOUDY    78  75  90 CALM      30.09R
TROY           CLOUDY    79  76  90 CALM      30.08R
KINSTON*       NOT AVBL
GENEVA*          N/A     86  72  62 W6        30.08R
ASHFORD*       NOT AVBL
DOTHAN         MOCLDY    85  72  65 SW5       30.11R
PANAMA CITY    PTCLDY    85  77  77 S6        30.07R HX  95

$$




USA.gov is the U.S. government's official web portal to all federal, state and local government web resources and services.